| time (UTC) | temp C | wind direction | speed KPH | gust KPH | rain 1hr cm | rain 24hr cm | rain mn cm | humidity % | barometer mb |
| 20260508005058 | 12 | 0 | 0.0 | 1.6 | 0.00 | 0.89 | 0.46 | 88 | 1014.1 |
| 20260508004559 | 12 | 0 | 0.0 | 0.0 | 0.00 | 0.89 | 0.46 | 88 | 1014.1 |
| 20260508004059 | 12 | 0 | 0.0 | 0.0 | 0.00 | 0.89 | 0.46 | 88 | 1014.0 |
| 20260508003600 | 13 | 0 | 0.0 | 3.2 | 0.00 | 0.89 | 0.46 | 87 | 1013.9 |
| 20260508003059 | 13 | 0 | 0.0 | 3.2 | 0.00 | 0.89 | 0.46 | 87 | 1014.0 |
| 20260508002557 | 13 | 0 | 0.0 | 3.2 | 0.00 | 0.89 | 0.46 | 87 | 1014.0 |
| 20260508002057 | 13 | 0 | 0.0 | 3.2 | 0.00 | 0.89 | 0.46 | 87 | 1013.7 |
| 20260508001600 | 13 | 0 | 0.0 | 4.8 | 0.00 | 0.89 | 0.46 | 86 | 1013.7 |
| 20260508001058 | 13 | 0 | 0.0 | 6.4 | 0.00 | 0.89 | 0.46 | 86 | 1013.7 |
| 20260508000557 | 13 | 0 | 1.6 | 6.4 | 0.00 | 0.89 | 0.46 | 86 | 1013.5 |
| 20260508000057 | 13 | 0 | 0.0 | 6.4 | 0.00 | 0.89 | 0.46 | 86 | 1013.5 |
| 20260507235557 | 13 | 0 | 0.0 | 8.0 | 0.00 | 0.94 | 0.46 | 86 | 1013.5 |
| 20260507235057 | 13 | 163 | 3.2 | 8.0 | 0.00 | 0.94 | 0.46 | 86 | 1013.8 |
| 20260507234605 | 13 | 193 | 3.2 | 8.0 | 0.00 | 0.94 | 0.46 | 86 | 1013.7 |
| 20260507234101 | 13 | 152 | 3.2 | 8.0 | 0.00 | 0.94 | 0.46 | 86 | 1013.7 |
| 20260507233558 | 13 | 179 | 3.2 | 8.0 | 0.00 | 0.94 | 0.46 | 85 | 1013.7 |
| 20260507233106 | 14 | 196 | 3.2 | 8.0 | 0.00 | 0.94 | 0.46 | 85 | 1013.9 |
| 20260507232558 | 14 | 175 | 3.2 | 11.3 | 0.00 | 0.94 | 0.46 | 85 | 1013.7 |
| 20260507232057 | 14 | 171 | 6.4 | 11.3 | 0.00 | 0.94 | 0.46 | 85 | 1013.9 |
| 20260507231559 | 14 | 171 | 4.8 | 11.3 | 0.00 | 0.94 | 0.46 | 86 | 1013.7 |
| 20260507231101 | 14 | 175 | 6.4 | 11.3 | 0.00 | 0.94 | 0.46 | 85 | 1013.9 |
| 20260507230559 | 14 | 175 | 6.4 | 14.5 | 0.00 | 0.94 | 0.46 | 85 | 1013.7 |
| 20260507230111 | 14 | 178 | 8.0 | 14.5 | 0.00 | 0.94 | 0.46 | 85 | 1013.8 |
| 20260507225557 | 14 | 199 | 4.8 | 12.9 | 0.00 | 1.07 | 0.46 | 84 | 1013.7 |
| 20260507225057 | 14 | 148 | 6.4 | 12.9 | 0.00 | 1.07 | 0.46 | 84 | 1014.0 |
| 20260507224556 | 14 | 182 | 0.0 | 6.4 | 0.00 | 1.07 | 0.46 | 85 | 1014.1 |
| 20260507224057 | 14 | 201 | 1.6 | 8.0 | 0.00 | 1.07 | 0.46 | 85 | 1014.0 |
| 20260507223601 | 14 | 0 | 3.2 | 9.7 | 0.00 | 1.07 | 0.46 | 85 | 1014.0 |
| 20260507223059 | 14 | 172 | 4.8 | 9.7 | 0.00 | 1.07 | 0.46 | 84 | 1013.9 |
| 20260507222558 | 14 | 201 | 4.8 | 9.7 | 0.00 | 1.07 | 0.46 | 84 | 1013.9 |
| 20260507222059 | 14 | 188 | 3.2 | 12.9 | 0.00 | 1.07 | 0.46 | 83 | 1013.9 |
| 20260507221556 | 14 | 0 | 4.8 | 16.1 | 0.00 | 1.07 | 0.46 | 85 | 1013.9 |
| 20260507221101 | 14 | 164 | 8.0 | 16.1 | 0.00 | 1.07 | 0.46 | 85 | 1013.8 |
| 20260507220557 | 14 | 166 | 9.7 | 16.1 | 0.00 | 1.07 | 0.46 | 84 | 1013.7 |
| 20260507220059 | 14 | 159 | 4.8 | 14.5 | 0.00 | 1.07 | 0.46 | 85 | 1013.7 |
| 20260507215558 | 14 | 205 | 6.4 | 16.1 | 0.00 | 1.07 | 0.46 | 85 | 1013.7 |
| 20260507215057 | 14 | 157 | 6.4 | 16.1 | 0.00 | 1.07 | 0.46 | 87 | 1013.6 |
| 20260507214609 | 15 | 129 | 6.4 | 14.5 | 0.00 | 1.07 | 0.46 | 86 | 1013.6 |
| 20260507214057 | 14 | 182 | 3.2 | 9.7 | 0.00 | 1.07 | 0.46 | 88 | 1013.5 |
| 20260507213558 | 13 | 120 | 3.2 | 11.3 | 0.00 | 1.07 | 0.46 | 88 | 1013.6 |
| 20260507213058 | 13 | 189 | 4.8 | 11.3 | 0.00 | 1.07 | 0.46 | 87 | 1013.6 |
| 20260507212559 | 13 | 205 | 1.6 | 11.3 | 0.00 | 1.07 | 0.46 | 87 | 1013.6 |
| 20260507212058 | 13 | 161 | 4.8 | 11.3 | 0.00 | 1.07 | 0.46 | 87 | 1013.4 |
| 20260507211603 | 13 | 215 | 3.2 | 9.7 | 0.00 | 1.07 | 0.46 | 86 | 1013.5 |
| 20260507211056 | 14 | 152 | 1.6 | 11.3 | 0.00 | 1.07 | 0.46 | 86 | 1013.4 |
| 20260507210557 | 14 | 175 | 1.6 | 11.3 | 0.00 | 1.07 | 0.46 | 85 | 1013.4 |
| 20260507210104 | 14 | 187 | 4.8 | 11.3 | 0.00 | 1.07 | 0.46 | 84 | 1013.3 |
| 20260507205559 | 15 | 154 | 6.4 | 16.1 | 0.00 | 1.07 | 0.46 | 85 | 1013.2 |
| 20260507205059 | 15 | 165 | 6.4 | 16.1 | 0.00 | 1.07 | 0.46 | 84 | 1013.1 |
| 20260507204559 | 14 | 130 | 4.8 | 6.4 | 0.00 | 1.07 | 0.46 | 85 | 1013.3 |
| 20260507204059 | 13 | 82 | 3.2 | 6.4 | 0.00 | 1.07 | 0.46 | 85 | 1013.3 |
| 20260507203557 | 13 | 101 | 1.6 | 8.0 | 0.00 | 1.07 | 0.46 | 85 | 1013.3 |
| 20260507203103 | 13 | 101 | 1.6 | 9.7 | 0.00 | 1.07 | 0.46 | 86 | 1013.4 |
| 20260507202557 | 13 | 234 | 4.8 | 11.3 | 0.00 | 1.07 | 0.46 | 89 | 1013.2 |
| 20260507202101 | 13 | 139 | 4.8 | 11.3 | 0.00 | 1.07 | 0.46 | 89 | 1013.3 |
| 20260507201556 | 13 | 124 | 6.4 | 11.3 | 0.00 | 1.07 | 0.46 | 89 | 1013.4 |
| 20260507201100 | 13 | 173 | 4.8 | 8.0 | 0.00 | 1.07 | 0.46 | 90 | 1013.4 |
| 20260507200559 | 12 | 175 | 3.2 | 8.0 | 0.00 | 1.07 | 0.46 | 89 | 1013.5 |
| 20260507200057 | 12 | 0 | 3.2 | 8.0 | 0.00 | 1.07 | 0.46 | 89 | 1013.7 |
| 20260507195557 | 13 | 156 | 3.2 | 8.0 | 0.00 | 1.07 | 0.46 | 89 | 1013.7 |
| 20260507195059 | 13 | 139 | 1.6 | 4.8 | 0.00 | 1.07 | 0.46 | 89 | 1013.6 |
| 20260507194600 | 13 | 0 | 1.6 | 4.8 | 0.00 | 1.07 | 0.46 | 88 | 1013.7 |
| 20260507194100 | 13 | 0 | 0.0 | 4.8 | 0.00 | 1.07 | 0.46 | 89 | 1013.7 |
| 20260507193557 | 13 | 0 | 0.0 | 4.8 | 0.00 | 1.07 | 0.46 | 89 | 1013.7 |
| 20260507193058 | 13 | 0 | 0.0 | 4.8 | 0.00 | 1.07 | 0.46 | 89 | 1013.6 |
| 20260507192558 | 13 | 60 | 1.6 | 4.8 | 0.00 | 1.07 | 0.46 | 88 | 1013.5 |
| 20260507192057 | 13 | 0 | 0.0 | 4.8 | 0.00 | 1.07 | 0.46 | 88 | 1013.5 |
| 20260507191559 | 13 | 0 | 1.6 | 4.8 | 0.00 | 1.07 | 0.46 | 88 | 1013.5 |
| 20260507191058 | 13 | 0 | 1.6 | 4.8 | 0.00 | 1.07 | 0.46 | 88 | 1013.7 |
| 20260507190557 | 13 | 110 | 0.0 | 4.8 | 0.00 | 1.07 | 0.46 | 90 | 1013.7 |
| 20260507190057 | 13 | 18 | 1.6 | 4.8 | 0.00 | 1.07 | 0.46 | 89 | 1013.8 |
| 20260507185557 | 13 | 0 | 1.6 | 4.8 | 0.00 | 1.07 | 0.46 | 92 | 1013.8 |
| 20260507185057 | 13 | 0 | 0.0 | 4.8 | 0.00 | 1.07 | 0.46 | 93 | 1013.7 |
| 20260507184556 | 12 | 0 | 1.6 | 6.4 | 0.00 | 1.07 | 0.46 | 92 | 1013.5 |
| 20260507184057 | 12 | 58 | 3.2 | 6.4 | 0.00 | 1.07 | 0.46 | 94 | 1013.6 |
| 20260507183600 | 12 | 250 | 1.6 | 4.8 | 0.00 | 1.07 | 0.46 | 94 | 1013.9 |
| 20260507183056 | 12 | 91 | 0.0 | 4.8 | 0.00 | 1.07 | 0.46 | 94 | 1013.8 |
| 20260507182556 | 12 | 0 | 0.0 | 4.8 | 0.00 | 1.07 | 0.46 | 94 | 1014.0 |
| 20260507182056 | 11 | 355 | 0.0 | 6.4 | 0.00 | 1.07 | 0.46 | 94 | 1014.0 |
| 20260507181557 | 11 | 0 | 0.0 | 6.4 | 0.00 | 1.07 | 0.46 | 94 | 1014.0 |
| 20260507181057 | 11 | 331 | 0.0 | 4.8 | 0.00 | 1.07 | 0.46 | 94 | 1013.8 |
| 20260507180559 | 11 | 286 | 1.6 | 4.8 | 0.00 | 1.07 | 0.46 | 94 | 1013.9 |
| 20260507175557 | 11 | 0 | 0.0 | 3.2 | 0.00 | 1.07 | 0.46 | 94 | 1014.2 |
| 20260507175057 | 11 | 0 | 0.0 | 4.8 | 0.03 | 1.07 | 0.46 | 94 | 1014.2 |
| 20260507174608 | 11 | 0 | 0.0 | 6.4 | 0.03 | 1.07 | 0.46 | 94 | 1014.2 |
| 20260507174057 | 11 | 0 | 1.6 | 6.4 | 0.03 | 1.07 | 0.46 | 94 | 1014.2 |
| 20260507173557 | 11 | 254 | 0.0 | 4.8 | 0.03 | 1.07 | 0.46 | 94 | 1014.4 |
| 20260507173056 | 11 | 0 | 0.0 | 4.8 | 0.03 | 1.07 | 0.46 | 94 | 1014.2 |
| 20260507172557 | 11 | 281 | 0.0 | 9.7 | 0.03 | 1.07 | 0.46 | 94 | 1014.2 |
| 20260507172058 | 11 | 0 | 0.0 | 9.7 | 0.03 | 1.07 | 0.46 | 94 | 1014.3 |
| 20260507171610 | 11 | 236 | 1.6 | 9.7 | 0.03 | 1.07 | 0.46 | 94 | 1014.3 |
| 20260507171057 | 11 | 303 | 3.2 | 9.7 | 0.03 | 1.07 | 0.46 | 93 | 1014.3 |
| 20260507170557 | 11 | 281 | 1.6 | 6.4 | 0.03 | 1.07 | 0.46 | 94 | 1014.2 |
| 20260507170057 | 12 | 292 | 0.0 | 6.4 | 0.03 | 1.07 | 0.46 | 94 | 1014.2 |
| 20260507165557 | 12 | 0 | 1.6 | 8.0 | 0.03 | 1.07 | 0.46 | 94 | 1014.0 |
| 20260507165057 | 12 | 0 | 1.6 | 8.0 | 0.00 | 1.04 | 0.43 | 94 | 1014.0 |
| 20260507164600 | 12 | 302 | 1.6 | 8.0 | 0.00 | 1.04 | 0.43 | 95 | 1014.1 |
| 20260507164058 | 12 | 352 | 1.6 | 12.9 | 0.00 | 1.04 | 0.43 | 94 | 1013.9 |
| 20260507163557 | 12 | 321 | 1.6 | 12.9 | 0.00 | 1.04 | 0.43 | 94 | 1013.9 |
| 20260507163101 | 12 | 340 | 1.6 | 8.0 | 0.00 | 1.04 | 0.43 | 94 | 1013.9 |
| 20260507162558 | 12 | 0 | 0.0 | 8.0 | 0.00 | 1.04 | 0.43 | 94 | 1014.0 |
| 20260507162058 | 11 | 298 | 3.2 | 8.0 | 0.00 | 1.04 | 0.43 | 94 | 1013.9 |
| 20260507161602 | 12 | 5 | 0.0 | 4.8 | 0.00 | 1.04 | 0.43 | 94 | 1013.7 |
| 20260507161057 | 12 | 343 | 0.0 | 4.8 | 0.00 | 1.04 | 0.43 | 95 | 1013.6 |
| 20260507160557 | 12 | 0 | 0.0 | 4.8 | 0.00 | 1.04 | 0.43 | 95 | 1013.8 |
| 20260507160059 | 11 | 0 | 0.0 | 12.9 | 0.00 | 1.04 | 0.43 | 95 | 1013.8 |
| 20260507155557 | 11 | 254 | 3.2 | 12.9 | 0.00 | 1.14 | 0.43 | 94 | 1013.9 |
| 20260507155057 | 11 | 342 | 3.2 | 8.0 | 0.00 | 1.14 | 0.43 | 94 | 1013.8 |
| 20260507154557 | 11 | 325 | 0.0 | 8.0 | 0.00 | 1.14 | 0.43 | 94 | 1013.7 |
| 20260507154056 | 12 | 309 | 1.6 | 8.0 | 0.00 | 1.14 | 0.43 | 94 | 1013.7 |
| 20260507153557 | 12 | 0 | 3.2 | 9.7 | 0.03 | 1.14 | 0.43 | 94 | 1013.6 |
| 20260507153104 | 12 | 315 | 3.2 | 12.9 | 0.03 | 1.14 | 0.43 | 94 | 1013.5 |
| 20260507152557 | 12 | 317 | 1.6 | 12.9 | 0.03 | 1.14 | 0.43 | 94 | 1013.4 |
| 20260507152100 | 12 | 313 | 1.6 | 9.7 | 0.03 | 1.14 | 0.43 | 94 | 1013.6 |
| 20260507151558 | 12 | 315 | 1.6 | 9.7 | 0.03 | 1.14 | 0.43 | 94 | 1013.6 |
| 20260507151057 | 12 | 303 | 3.2 | 9.7 | 0.03 | 1.14 | 0.43 | 95 | 1013.4 |
| 20260507150557 | 12 | 47 | 0.0 | 6.4 | 0.05 | 1.14 | 0.43 | 95 | 1013.5 |
| 20260507145558 | 12 | 338 | 1.6 | 8.0 | 0.05 | 1.27 | 0.43 | 95 | 1013.4 |
| 20260507145058 | 12 | 337 | 3.2 | 8.0 | 0.05 | 1.27 | 0.43 | 94 | 1013.4 |
| 20260507144556 | 12 | 11 | 1.6 | 9.7 | 0.05 | 1.27 | 0.43 | 94 | 1013.3 |
| 20260507144059 | 12 | 306 | 3.2 | 9.7 | 0.08 | 1.27 | 0.43 | 94 | 1013.2 |
| 20260507143557 | 12 | 307 | 1.6 | 9.7 | 0.05 | 1.24 | 0.41 | 95 | 1013.2 |
| 20260507143058 | 12 | 317 | 3.2 | 9.7 | 0.05 | 1.24 | 0.41 | 94 | 1013.3 |
| 20260507142558 | 12 | 327 | 3.2 | 8.0 | 0.05 | 1.24 | 0.41 | 95 | 1013.2 |
| 20260507142057 | 11 | 329 | 1.6 | 9.7 | 0.05 | 1.24 | 0.41 | 94 | 1013.2 |
| 20260507141600 | 11 | 0 | 3.2 | 14.5 | 0.05 | 1.24 | 0.41 | 94 | 1013.3 |
| 20260507141058 | 11 | 312 | 4.8 | 14.5 | 0.05 | 1.24 | 0.41 | 94 | 1013.2 |
| 20260507140559 | 12 | 129 | 3.2 | 8.0 | 0.05 | 1.22 | 0.38 | 94 | 1013.2 |
| 20260507140107 | 11 | 311 | 0.0 | 8.0 | 0.05 | 1.22 | 0.38 | 94 | 1013.1 |
| 20260507135558 | 12 | 324 | 3.2 | 8.0 | 0.05 | 1.55 | 0.38 | 94 | 1013.1 |
| 20260507135058 | 12 | 328 | 1.6 | 8.0 | 0.05 | 1.55 | 0.38 | 94 | 1013.3 |
| 20260507134604 | 12 | 26 | 1.6 | 8.0 | 0.05 | 1.55 | 0.38 | 94 | 1013.1 |
| 20260507134057 | 12 | 304 | 1.6 | 8.0 | 0.03 | 1.52 | 0.36 | 94 | 1012.9 |
| 20260507133558 | 12 | 316 | 3.2 | 8.0 | 0.03 | 1.52 | 0.36 | 94 | 1012.9 |
| 20260507133109 | 12 | 322 | 1.6 | 6.4 | 0.05 | 1.52 | 0.36 | 94 | 1012.9 |
| 20260507132557 | 12 | 277 | 1.6 | 6.4 | 0.05 | 1.52 | 0.36 | 94 | 1012.9 |
| 20260507132057 | 12 | 336 | 1.6 | 4.8 | 0.05 | 1.52 | 0.36 | 94 | 1013.1 |
| 20260507131559 | 12 | 323 | 0.0 | 4.8 | 0.05 | 1.52 | 0.36 | 94 | 1013.1 |
| 20260507131057 | 12 | 0 | 1.6 | 4.8 | 0.05 | 1.52 | 0.36 | 94 | 1013.0 |
| 20260507130558 | 12 | 252 | 0.0 | 3.2 | 0.03 | 1.47 | 0.33 | 95 | 1013.2 |
| 20260507130108 | 12 | 0 | 0.0 | 8.0 | 0.03 | 1.47 | 0.33 | 95 | 1013.2 |
| 20260507125558 | 12 | 0 | 1.6 | 8.0 | 0.03 | 1.55 | 0.33 | 94 | 1013.1 |
| 20260507125059 | 12 | 0 | 1.6 | 6.4 | 0.03 | 1.55 | 0.33 | 94 | 1012.6 |
| 20260507124634 | 12 | 0 | 1.6 | 4.8 | 0.03 | 1.55 | 0.33 | 95 | 1012.6 |
| 20260507124058 | 12 | 350 | 0.0 | 4.8 | 0.03 | 1.55 | 0.33 | 95 | 1012.8 |
| 20260507123558 | 12 | 337 | 0.0 | 4.8 | 0.03 | 1.55 | 0.33 | 95 | 1012.8 |
| 20260507123101 | 12 | 0 | 1.6 | 4.8 | 0.00 | 1.52 | 0.30 | 94 | 1012.9 |
| 20260507122557 | 12 | 0 | 0.0 | 4.8 | 0.00 | 1.52 | 0.30 | 94 | 1012.6 |
| 20260507122057 | 12 | 277 | 0.0 | 4.8 | 0.00 | 1.52 | 0.30 | 94 | 1012.5 |
| 20260507121557 | 12 | 0 | 0.0 | 4.8 | 0.00 | 1.52 | 0.30 | 94 | 1012.7 |
| 20260507121059 | 12 | 0 | 0.0 | 4.8 | 0.00 | 1.52 | 0.30 | 94 | 1012.7 |
| 20260507120557 | 12 | 0 | 0.0 | 4.8 | 0.00 | 1.52 | 0.30 | 94 | 1012.8 |
| 20260507120109 | 12 | 0 | 0.0 | 4.8 | 0.00 | 1.52 | 0.30 | 94 | 1012.6 |
| 20260507115558 | 12 | 309 | 1.6 | 11.3 | 0.00 | 1.52 | 0.30 | 94 | 1012.1 |
| 20260507115101 | 12 | 317 | 3.2 | 11.3 | 0.00 | 1.52 | 0.30 | 94 | 1011.9 |
| 20260507114614 | 12 | 319 | 1.6 | 6.4 | 0.00 | 1.52 | 0.30 | 94 | 1012.0 |
| 20260507114058 | 12 | 327 | 1.6 | 6.4 | 0.00 | 1.52 | 0.30 | 94 | 1012.1 |
| 20260507113558 | 12 | 323 | 0.0 | 4.8 | 0.00 | 1.52 | 0.30 | 94 | 1012.3 |
| 20260507113108 | 12 | 0 | 0.0 | 3.2 | 0.03 | 1.52 | 0.30 | 94 | 1012.5 |
| 20260507112601 | 12 | 0 | 0.0 | 4.8 | 0.03 | 1.52 | 0.30 | 94 | 1012.3 |
| 20260507112058 | 12 | 0 | 0.0 | 6.4 | 0.03 | 1.52 | 0.30 | 94 | 1012.1 |
| 20260507111558 | 12 | 338 | 0.0 | 6.4 | 0.03 | 1.52 | 0.30 | 94 | 1012.1 |
| 20260507111058 | 12 | 26 | 1.6 | 4.8 | 0.03 | 1.52 | 0.30 | 94 | 1012.3 |
| 20260507110600 | 12 | 0 | 0.0 | 1.6 | 0.03 | 1.52 | 0.30 | 94 | 1012.4 |
| 20260507110110 | 12 | 0 | 0.0 | 1.6 | 0.03 | 1.52 | 0.30 | 94 | 1012.4 |
| 20260507105558 | 12 | 0 | 0.0 | 1.6 | 0.03 | 1.52 | 0.30 | 94 | 1012.1 |
| 20260507105101 | 12 | 0 | 0.0 | 1.6 | 0.03 | 1.52 | 0.30 | 94 | 1012.5 |
| 20260507104602 | 12 | 0 | 0.0 | 1.6 | 0.03 | 1.52 | 0.30 | 94 | 1011.9 |
| 20260507104059 | 12 | 0 | 0.0 | 1.6 | 0.03 | 1.52 | 0.30 | 94 | 1012.4 |
| 20260507103559 | 12 | 0 | 0.0 | 3.2 | 0.03 | 1.52 | 0.30 | 94 | 1012.4 |
| 20260507103103 | 12 | 0 | 0.0 | 3.2 | 0.03 | 1.47 | 0.28 | 94 | 1012.5 |
| 20260507102559 | 12 | 0 | 0.0 | 1.6 | 0.03 | 1.47 | 0.28 | 94 | 1012.3 |
| 20260507102059 | 12 | 0 | 0.0 | 1.6 | 0.03 | 1.47 | 0.28 | 94 | 1012.0 |
| 20260507101559 | 12 | 0 | 0.0 | 1.6 | 0.03 | 1.47 | 0.28 | 94 | 1012.2 |
| 20260507101058 | 12 | 184 | 0.0 | 3.2 | 0.03 | 1.47 | 0.28 | 94 | 1011.8 |
| 20260507100559 | 13 | 0 | 0.0 | 4.8 | 0.03 | 1.47 | 0.28 | 94 | 1011.6 |
| 20260507100058 | 13 | 0 | 1.6 | 4.8 | 0.03 | 1.47 | 0.28 | 94 | 1011.6 |
| 20260507095557 | 13 | 202 | 0.0 | 1.6 | 0.03 | 1.47 | 0.28 | 94 | 1011.4 |
| 20260507095056 | 13 | 0 | 0.0 | 1.6 | 0.03 | 1.47 | 0.28 | 94 | 1011.5 |
| 20260507094558 | 13 | 0 | 0.0 | 1.6 | 0.03 | 1.47 | 0.28 | 94 | 1011.6 |
| 20260507094056 | 13 | 0 | 0.0 | 1.6 | 0.03 | 1.47 | 0.28 | 94 | 1011.5 |
| 20260507093556 | 13 | 0 | 0.0 | 1.6 | 0.05 | 1.47 | 0.28 | 94 | 1011.5 |
| 20260507093057 | 13 | 0 | 0.0 | 1.6 | 0.05 | 1.47 | 0.25 | 94 | 1011.9 |
| 20260507092559 | 12 | 0 | 0.0 | 3.2 | 0.05 | 1.47 | 0.25 | 94 | 1011.8 |
| 20260507092100 | 12 | 0 | 0.0 | 3.2 | 0.05 | 1.47 | 0.25 | 94 | 1012.0 |
| 20260507091556 | 12 | 268 | 0.0 | 3.2 | 0.05 | 1.47 | 0.25 | 94 | 1011.8 |
| 20260507091057 | 13 | 0 | 0.0 | 3.2 | 0.08 | 1.47 | 0.25 | 94 | 1011.8 |
| 20260507090557 | 13 | 268 | 0.0 | 3.2 | 0.08 | 1.47 | 0.25 | 94 | 1011.6 |
| 20260507090105 | 13 | 0 | 0.0 | 3.2 | 0.08 | 1.47 | 0.25 | 94 | 1011.6 |
| 20260507085601 | 13 | 0 | 0.0 | 3.2 | 0.08 | 1.47 | 0.25 | 94 | 1011.6 |
| 20260507085100 | 13 | 0 | 0.0 | 3.2 | 0.08 | 1.47 | 0.25 | 94 | 1011.5 |
| 20260507084559 | 13 | 0 | 0.0 | 0.0 | 0.08 | 1.47 | 0.25 | 94 | 1011.6 |
| 20260507084058 | 13 | 0 | 0.0 | 0.0 | 0.08 | 1.47 | 0.25 | 94 | 1011.4 |
| 20260507083555 | 13 | 0 | 0.0 | 3.2 | 0.05 | 1.45 | 0.23 | 94 | 1011.5 |
| 20260507083057 | 13 | 0 | 0.0 | 3.2 | 0.03 | 1.42 | 0.20 | 94 | 1011.7 |
| 20260507082558 | 13 | 0 | 0.0 | 3.2 | 0.03 | 1.42 | 0.20 | 94 | 1011.8 |
| 20260507082058 | 13 | 0 | 0.0 | 3.2 | 0.03 | 1.42 | 0.20 | 94 | 1011.7 |
| 20260507081559 | 13 | 0 | 0.0 | 3.2 | 0.03 | 1.42 | 0.20 | 94 | 1011.7 |
| 20260507081059 | 13 | 0 | 0.0 | 0.0 | 0.00 | 1.40 | 0.18 | 94 | 1011.6 |
| 20260507080558 | 13 | 0 | 0.0 | 3.2 | 0.00 | 1.40 | 0.18 | 94 | 1011.5 |
| 20260507075600 | 13 | 0 | 0.0 | 4.8 | 0.00 | 1.40 | 0.18 | 94 | 1011.5 |
| 20260507075101 | 13 | 0 | 0.0 | 4.8 | 0.00 | 1.40 | 0.18 | 94 | 1011.6 |
| 20260507074612 | 13 | 0 | 0.0 | 4.8 | 0.00 | 1.40 | 0.18 | 94 | 1011.7 |
| 20260507074058 | 13 | 166 | 0.0 | 8.0 | 0.00 | 1.40 | 0.18 | 94 | 1011.4 |
| 20260507073558 | 13 | 0 | 1.6 | 8.0 | 0.00 | 1.40 | 0.18 | 94 | 1011.5 |
| 20260507073056 | 13 | 319 | 0.0 | 6.4 | 0.00 | 1.40 | 0.18 | 94 | 1011.3 |
| 20260507072559 | 13 | 327 | 1.6 | 9.7 | 0.00 | 1.40 | 0.18 | 94 | 1011.4 |
| 20260507072056 | 13 | 341 | 1.6 | 9.7 | 0.00 | 1.40 | 0.18 | 94 | 1011.5 |
| 20260507071557 | 13 | 211 | 3.2 | 9.7 | 0.00 | 1.40 | 0.18 | 94 | 1011.7 |
| 20260507071058 | 13 | 316 | 1.6 | 6.4 | 0.00 | 1.40 | 0.18 | 94 | 1011.7 |
| 20260507070558 | 13 | 302 | 0.0 | 14.5 | 0.00 | 1.40 | 0.18 | 94 | 1011.6 |
| 20260507070115 | 13 | 346 | 3.2 | 14.5 | 0.00 | 1.40 | 0.18 | 94 | 1011.6 |
| 20260507065600 | 13 | 360 | 3.2 | 19.3 | 0.00 | 1.42 | 0.18 | 93 | 1011.8 |
| 20260507065059 | 14 | 332 | 4.8 | 19.3 | 0.03 | 1.42 | 0.18 | 93 | 1011.7 |
| 20260507064605 | 15 | 327 | 1.6 | 9.7 | 0.03 | 1.42 | 0.18 | 94 | 1011.4 |
| 20260507064059 | 15 | 319 | 1.6 | 14.5 | 0.03 | 1.42 | 0.18 | 94 | 1011.6 |
| 20260507063601 | 15 | 306 | 3.2 | 14.5 | 0.03 | 1.42 | 0.18 | 94 | 1011.4 |
| 20260507063100 | 15 | 328 | 4.8 | 12.9 | 0.05 | 1.42 | 0.18 | 94 | 1011.4 |
| 20260507062559 | 15 | 328 | 1.6 | 8.0 | 0.13 | 1.42 | 0.18 | 94 | 1011.7 |
| 20260507062101 | 15 | 319 | 1.6 | 8.0 | 0.18 | 1.42 | 0.18 | 94 | 1011.6 |
| 20260507061556 | 15 | 330 | 1.6 | 6.4 | 0.18 | 1.42 | 0.18 | 94 | 1011.4 |
| 20260507061057 | 15 | 341 | 0.0 | 6.4 | 0.18 | 1.42 | 0.18 | 94 | 1011.5 |
| 20260507060602 | 15 | 298 | 1.6 | 11.3 | 0.18 | 1.42 | 0.18 | 94 | 1011.6 |
| 20260507060059 | 15 | 0 | 1.6 | 11.3 | 0.18 | 1.42 | 0.18 | 93 | 1011.8 |
| 20260507055558 | 16 | 309 | 3.2 | 8.0 | 0.18 | 1.42 | 0.18 | 93 | 1011.6 |
| 20260507055058 | 16 | 318 | 0.0 | 8.0 | 0.15 | 1.40 | 0.15 | 94 | 1011.9 |
| 20260507054557 | 16 | 294 | 1.6 | 8.0 | 0.15 | 1.40 | 0.15 | 94 | 1012.1 |
| 20260507054100 | 16 | 0 | 0.0 | 3.2 | 0.15 | 1.40 | 0.15 | 94 | 1012.2 |
| 20260507053555 | 16 | 98 | 1.6 | 3.2 | 0.15 | 1.40 | 0.15 | 94 | 1012.0 |
| 20260507053059 | 16 | 0 | 0.0 | 6.4 | 0.13 | 1.37 | 0.13 | 94 | 1012.0 |
| 20260507052555 | 16 | 0 | 1.6 | 6.4 | 0.05 | 1.30 | 0.05 | 94 | 1012.0 |
| 20260507052055 | 16 | 82 | 0.0 | 4.8 | 0.00 | 1.24 | 0.00 | 94 | 1012.6 |
| 20260507051602 | 16 | 0 | 0.0 | 4.8 | 0.00 | 1.24 | 0.00 | 94 | 1011.9 |
| 20260507051056 | 16 | 38 | 0.0 | 4.8 | 0.00 | 1.24 | 0.00 | 94 | 1012.1 |
| 20260507050556 | 16 | 0 | 1.6 | 4.8 | 0.00 | 1.24 | 0.00 | 94 | 1012.1 |
| 20260507050106 | 16 | 185 | 0.0 | 3.2 | 0.00 | 1.24 | 0.00 | 94 | 1012.3 |
| 20260507045558 | 16 | 0 | 0.0 | 3.2 | 0.00 | 1.24 | 0.00 | 94 | 1012.2 |
| 20260507045058 | 16 | 0 | 0.0 | 4.8 | 0.00 | 1.24 | 0.00 | 94 | 1012.0 |
| 20260507044559 | 16 | 185 | 0.0 | 4.8 | 0.00 | 1.24 | 0.00 | 94 | 1011.8 |
| 20260507044057 | 16 | 221 | 0.0 | 6.4 | 0.00 | 1.24 | 0.00 | 94 | 1011.9 |
| 20260507043557 | 16 | 0 | 0.0 | 9.7 | 0.00 | 1.24 | 0.00 | 94 | 1011.9 |
| 20260507043056 | 16 | 0 | 3.2 | 9.7 | 0.00 | 1.24 | 0.00 | 94 | 1012.0 |
| 20260507042558 | 16 | 175 | 1.6 | 4.8 | 0.00 | 1.24 | 0.00 | 94 | 1012.1 |
| 20260507042101 | 16 | 184 | 0.0 | 4.8 | 0.00 | 1.24 | 0.00 | 94 | 1012.4 |
| 20260507041558 | 16 | 0 | 0.0 | 4.8 | 0.00 | 1.24 | 0.00 | 94 | 1012.4 |
| 20260507041057 | 16 | 0 | 0.0 | 3.2 | 0.00 | 1.24 | 0.00 | 94 | 1012.2 |
| 20260507040558 | 16 | 0 | 0.0 | 4.8 | 0.03 | 1.24 | 0.00 | 94 | 1012.1 |
| 20260507040110 | 16 | 0 | 1.6 | 4.8 | 0.05 | 1.24 | 0.00 | 94 | 1012.0 |
| 20260507035557 | 16 | 195 | 0.0 | 4.8 | 0.08 | 1.24 | 1.24 | 94 | 1012.5 |
| 20260507035100 | 16 | 0 | 0.0 | 3.2 | 0.08 | 1.24 | 1.24 | 93 | 1012.8 |
| 20260507034609 | 16 | 0 | 0.0 | 3.2 | 0.08 | 1.24 | 1.24 | 93 | 1012.9 |
| 20260507034058 | 16 | 0 | 0.0 | 3.2 | 0.08 | 1.24 | 1.24 | 93 | 1012.9 |
| 20260507033558 | 16 | 5 | 0.0 | 3.2 | 0.08 | 1.24 | 1.24 | 93 | 1012.7 |
| 20260507033103 | 16 | 227 | 0.0 | 4.8 | 0.08 | 1.24 | 1.24 | 93 | 1012.6 |
| 20260507032557 | 16 | 0 | 0.0 | 4.8 | 0.08 | 1.24 | 1.24 | 93 | 1012.8 |
| 20260507032059 | 16 | 0 | 1.6 | 4.8 | 0.08 | 1.24 | 1.24 | 93 | 1012.8 |
| 20260507031613 | 16 | 0 | 0.0 | 4.8 | 0.08 | 1.24 | 1.24 | 93 | 1013.1 |
| 20260507031100 | 16 | 355 | 0.0 | 3.2 | 0.08 | 1.24 | 1.24 | 93 | 1013.0 |
| 20260507030558 | 16 | 268 | 0.0 | 4.8 | 0.05 | 1.22 | 1.22 | 93 | 1012.8 |
| 20260507030059 | 16 | 0 | 0.0 | 8.0 | 0.03 | 1.19 | 1.19 | 93 | 1013.2 |
| 20260507025559 | 16 | 0 | 0.0 | 8.0 | 0.00 | 1.17 | 1.17 | 93 | 1013.5 |
| 20260507025057 | 16 | 0 | 0.0 | 3.2 | 0.00 | 1.17 | 1.17 | 93 | 1013.4 |
| 20260507024558 | 17 | 0 | 0.0 | 3.2 | 0.00 | 1.17 | 1.17 | 93 | 1013.3 |
| 20260507024057 | 17 | 0 | 0.0 | 3.2 | 0.00 | 1.17 | 1.17 | 93 | 1013.3 |
| 20260507023557 | 17 | 0 | 0.0 | 3.2 | 0.00 | 1.17 | 1.17 | 93 | 1013.5 |
| 20260507023058 | 17 | 286 | 0.0 | 3.2 | 0.00 | 1.17 | 1.17 | 93 | 1013.2 |
| 20260507022557 | 17 | 286 | 0.0 | 3.2 | 0.00 | 1.17 | 1.17 | 93 | 1013.1 |
| 20260507022058 | 17 | 230 | 0.0 | 4.8 | 0.00 | 1.17 | 1.17 | 93 | 1013.2 |
| 20260507021556 | 17 | 229 | 0.0 | 4.8 | 0.03 | 1.17 | 1.17 | 93 | 1012.9 |
| 20260507021057 | 17 | 0 | 0.0 | 3.2 | 0.05 | 1.17 | 1.17 | 93 | 1012.4 |
| 20260507020600 | 17 | 0 | 0.0 | 3.2 | 0.08 | 1.17 | 1.17 | 93 | 1013.1 |
| 20260507020059 | 17 | 0 | 0.0 | 3.2 | 0.10 | 1.17 | 1.17 | 93 | 1012.9 |
| 20260507015557 | 17 | 0 | 0.0 | 1.6 | 0.13 | 1.17 | 1.17 | 93 | 1013.0 |
| 20260507015057 | 17 | 0 | 0.0 | 3.2 | 0.15 | 1.17 | 1.17 | 93 | 1013.1 |
| 20260507014559 | 17 | 0 | 0.0 | 3.2 | 0.18 | 1.17 | 1.17 | 93 | 1012.6 |
| 20260507014058 | 17 | 0 | 0.0 | 3.2 | 0.20 | 1.17 | 1.17 | 93 | 1012.7 |
| 20260507013557 | 17 | 240 | 0.0 | 3.2 | 0.23 | 1.17 | 1.17 | 93 | 1012.8 |
| 20260507013118 | 17 | 0 | 0.0 | 4.8 | 0.25 | 1.17 | 1.17 | 93 | 1013.0 |
| 20260507012557 | 17 | 262 | 1.6 | 9.7 | 0.28 | 1.17 | 1.17 | 93 | 1012.8 |
| 20260507012057 | 17 | 269 | 4.8 | 12.9 | 0.28 | 1.17 | 1.17 | 93 | 1012.8 |
| 20260507011607 | 17 | 156 | 3.2 | 12.9 | 0.28 | 1.14 | 1.14 | 93 | 1013.0 |
| 20260507011057 | 17 | 137 | 3.2 | 17.7 | 0.28 | 1.12 | 1.12 | 92 | 1011.2 |
| 20260507010600 | 17 | 165 | 4.8 | 17.7 | 0.28 | 1.09 | 1.09 | 92 | 1013.7 |
| 20260507010108 | 17 | 247 | 1.6 | 6.4 | 0.25 | 1.07 | 1.07 | 92 | 1014.0 |
| 20260507005557 | 17 | 0 | 1.6 | 8.0 | 0.25 | 1.04 | 1.04 | 92 | 1014.1 |